Location: ?????????
(54.7630°N, 39.4991°E)
Time: 01:50:32
(UTC+00:00)

Cosmos 1300 Rocket - Pass Details

Date: 14 April 2026
Orbit: 596 x 617 km, 82.5° (Epoch: 20 May)

Event Time Altitude Azimuth Distance (km) Brightness Sun altitude
Exits shadow 19:42:37 65° 208° (SSW) 663 3.5 -22.3°
Maximum altitude 19:43:13 82° 281° (W) 610 3.4 -22.3°
Drops below altitude 10° 19:47:32 10° 10° (N) 1,950 6.8 -22.6°
Sets 19:49:46 0° 12° (NNE) 2,860 7.8 -22.7°
